Home   Weather   Mazatlan   Past weeks

Flag for Mexico Past Weather in Mazatlan, Sinaloa, Mexico — Yesterday and Last 2 Weeks

Now
72 °F

Passing clouds.


Feels Like: 67 °F
Forecast: 71 / 81 °F
Wind: No wind

Location: Mazatlan / G. Buelna

Current Time: Apr 25, 2017 at 12:33:18 am

Latest Report: Apr 24, 2017 at 11:43 pm


Visibility: 10 mi

Pressure: 29.88 "Hg

Humidity: 94%

Dew Point: 70 °F

Location of MazatlanLocation

Past Weather in Mazatlan — Graph

°F

Mazatlan Temperature Yesterday

Maximum temperature yesterday: 86 °F (at 11:48 am)
Minimum temperature yesterday: 72 °F (at 2:42 am)
Average temperature yesterday: 78 °F

High & Low Weather Summary for the Past Weeks

 TemperatureHumidityPressure
High86 °F (Apr 23, 2:41 pm)100% (Apr 19, 2:40 am)29.95 "Hg (Apr 19, 2:40 am)
Low59 °F (Apr 18, 12:40 am)35% (Apr 20, 2:40 pm)29.75 "Hg (Apr 20, 5:43 pm)
Average76 °F76%29.85 "Hg
* Reported Apr 18 12:40 am — Apr 24 10:42 pm, Mazatlan, Weather by CustomWeather, © 2017

Note: Actual official high and low records may vary slightly from our data, if they occured in-between our weather recording intervals... More about our weather records

Advertising

Mazatlan Weather History for the Previous 24 Hours

Scroll right to see more
 ConditionsComfort  
Time TempWeatherWind HumidityBarometerVisibility
10:42 pm
Mon, Apr 24
73 °FPassing clouds.No wind94%29.90 "Hg10 mi
9:47 pm73 °FPassing clouds.No wind94%29.88 "Hg10 mi
8:42 pm75 °FPassing clouds.3 mph89%29.87 "Hg10 mi
7:41 pm79 °FPassing clouds.3 mph79%29.85 "Hg12 mi
6:41 pm81 °FPassing clouds.5 mph70%29.85 "Hg12 mi
5:40 pm82 °FSunny.7 mph62%29.82 "Hg15 mi
4:40 pm82 °FSunny.8 mph62%29.83 "Hg12 mi
3:44 pm84 °FSunny.6 mph62%29.85 "Hg12 mi
2:42 pm84 °FSunny.10 mph62%29.87 "Hg12 mi
1:42 pm84 °FScattered clouds.10 mph55%29.88 "Hg12 mi
12:42 pm86 °FPartly sunny.8 mph52%29.89 "Hg12 mi
11:48 am86 °FPartly sunny.5 mph55%29.89 "Hg12 mi
10:44 am84 °FPartly sunny.5 mph51%29.92 "Hg12 mi
9:48 am82 °FPartly sunny.6 mph62%29.92 "Hg12 mi
8:43 am79 °FOvercast.3 mph70%29.90 "Hg12 mi
7:43 am73 °FMore clouds than sun.3 mph83%29.88 "Hg12 mi
6:43 am72 °FMore clouds than sun.3 mph88%29.86 "Hg10 mi
5:42 am72 °FMostly cloudy.No wind88%29.83 "Hg10 mi
4:40 am72 °FPartly cloudy.No wind88%29.85 "Hg10 mi
3:40 am72 °FPassing clouds.No wind88%29.85 "Hg10 mi
2:42 am72 °FClear.No wind88%29.83 "Hg10 mi
1:40 am73 °FClear.No wind83%29.89 "Hg10 mi
12:41 am73 °FClear.No wind89%29.90 "Hg10 mi
Weather by CustomWeather, © 2017

See weather overviewHow to use our weather pages